Flag for U.S.A. Weather past 2 weeks in Lexington, Virginia, U.S.A.

Now
57 °F

Clear.


Feels Like: 55 °F
Forecast: 52 / 82 °F
Wind: 8 mph from South

Location: Hot Springs / Ingalls

Current Time: Sep 20, 2014 at 10:04:49 PM

Latest Report: Sep 20, 2014 at 9:35 PM


Visibility: 10 mi

Pressure: 30.18 "Hg

Humidity: 61%

Dew point: 44 °F

Location of LexingtonLocation

Historic Weather in Lexington — Graph

°F

Lexington temperature yesterday

Maximum temperature yesterday: 54 °F (at 12:15 AM)
Minimum temperature yesterday: 50 °F (at 7:15 PM)
Average temperature yesterday: 52 °F

Past Weeks' High & Low Weather Summary

 TemperatureHumidityPressure
High76 °F (Sep 6, 2:35 PM)100% (Sep 6, 3:35 AM)30.35 "Hg (Sep 6, 3:35 AM)
Low44 °F (Sep 14, 7:55 AM)35% (Sep 18, 1:55 PM)30.05 "Hg (Sep 18, 1:55 AM)
Average57 °F77%30.20 "Hg
* Reported Sep 5 8:15 PM — Sep 20 8:55 PM, Lexington, Weather by CustomWeather, © 2014

Note: Actual official high and low records may vary slightly from our data, if they occured in-between our weather recording intervals... More about our weather records

Advertising

Lexington weather history for previous 24 hours

 ConditionsComfort  
Time TempWeatherWind HumidityBarometerVisibility
8:55 PM
Sep 20
57 °FClear.5 mph61%30.17 "Hg10 mi
8:35 PM57 °FClear.6 mph60%30.17 "Hg10 mi
8:15 PM58 °FSunny.7 mph59%30.16 "Hg10 mi
7:55 PM58 °FSunny.6 mph59%30.17 "Hg10 mi
7:15 PM58 °FSunny.5 mph57%30.18 "Hg10 mi
6:55 PM59 °FSunny.5 mph55%30.18 "Hg10 mi
6:15 PM62 °FSunny.6 mph49%30.19 "Hg10 mi
5:55 PM63 °FSunny.7 mph49%30.20 "Hg10 mi
5:35 PM64 °FSunny.6 mph49%30.21 "Hg10 mi
3:50 PM64 °FSunny.9 mph45%30.23 "Hg10 mi
3:35 PM64 °FSunny.7 mph45%30.24 "Hg10 mi
3:10 PM65 °FScattered clouds.7 mph44%30.25 "Hg10 mi
2:50 PM65 °FSunny.6 mph44%30.26 "Hg10 mi
2:35 PM65 °FSunny.5 mph45%30.27 "Hg10 mi
2:15 PM64 °FScattered clouds.7 mph45%30.27 "Hg10 mi
1:50 PM64 °FScattered clouds.6 mph44%30.28 "Hg10 mi
9:15 AM58 °FSunny.9 mph40%30.34 "Hg10 mi
8:50 AM55 °FScattered clouds.8 mph54%30.33 "Hg10 mi
8:35 AM54 °FScattered clouds.8 mph50%30.33 "Hg10 mi
8:15 AM54 °FScattered clouds.9 mph53%30.34 "Hg10 mi
7:50 AM52 °FClear.7 mph59%30.33 "Hg10 mi
7:35 AM51 °FPassing clouds.8 mph92%30.33 "Hg10 mi
7:15 AM51 °FFog.8 mph94%30.33 "Hg1 mi
6:15 AM51 °FPartly cloudy.8 mph94%30.32 "Hg7 mi
5:55 AM51 °FMostly cloudy.8 mph93%30.32 "Hg7 mi
5:15 AM51 °FMostly cloudy.9 mph91%30.32 "Hg10 mi
4:55 AM52 °FFog.8 mph91%30.32 "Hg4 mi
4:15 AM52 °FFog.7 mph91%30.32 "Hg1 mi
3:55 AM52 °FFog.8 mph91%30.32 "Hg2 mi
3:35 AM52 °FFog.10 mph91%30.32 "Hg2 mi
3:15 AM52 °FFog.8 mph91%30.32 "Hg0 mi
2:55 AM52 °FFog.9 mph91%30.33 "Hg0 mi
2:35 AM52 °FFog.7 mph91%30.33 "Hg0 mi
2:15 AM53 °FFog.8 mph91%30.33 "Hg0 mi
1:55 AM53 °FFog.6 mph91%30.33 "Hg0 mi
1:35 AM52 °FFog.6 mph92%30.33 "Hg0 mi
1:15 AM53 °FFog.6 mph91%30.34 "Hg0 mi
12:55 AM53 °FFog.6 mph91%30.34 "Hg0 mi
12:35 AM53 °FFog.7 mph91%30.35 "Hg0 mi
12:15 AM52 °FFog.7 mph92%30.35 "Hg0 mi
11:55 PM
Sep 19
52 °FFog.6 mph93%30.35 "Hg0 mi
11:15 PM52 °FFog.7 mph94%30.35 "Hg1 mi
10:55 PM52 °FFog.6 mph94%30.35 "Hg2 mi
10:35 PM52 °FFog.5 mph94%30.35 "Hg4 mi
10:15 PM52 °FFog.7 mph94%30.35 "Hg5 mi
Weather by CustomWeather, © 2014

See weather overviewHow to use our weather pages